Regional Weather Roundup
Issued by NWS Burlington, VT

Home | Current Version | Previous Version | Text Only | Print | Product List | Glossary On
Versions: 1 2 3 4 5 6 7 8 9 10 11 12 13 14 15 16 17 18 19 20 21 22 23 24 25 26 27 28 29 30 31 32 33 34 35 36 37 38 39 40 41 42 43 44 45 46 47 48 49 50
000
ASUS41 KBTV 030930
RWRBTV
VERMONT REGIONAL WEATHER ROUNDUP
NATIONAL WEATHER SERVICE BURLINGTON VT
500 AM EDT SUN MAY 03 2015

NOTE: "FAIR" INDICATES FEW OR NO CLOUDS BELOW 12,000 FEET WITH NO
SIGNIFICANT WEATHER AND/OR OBSTRUCTIONS TO VISIBILITY.

* THESE REPORTS ARE NOT UNDER NWS QUALITY CONTROL AND/OR DO NOT
  REPORT WEATHER SUCH AS PRECIPITATION AND FOG.

VTZ001>019-031000-
_____VERMONT_____


CITY           SKY/WX    TMP DP  RH WIND       PRES   REMARKS
BURLINGTON     MOSUNNY   47  36  65 E3        29.96R
MONTPELIER     SUNNY     38  33  82 CALM      30.02R
MORRISVILLE    MOSUNNY   35  31  85 CALM      30.00R
ST. JOHNSBURY*   N/A     37  33  85 MISG      29.99R
LYNDONVILLE*     N/A     38  30  72 CALM      30.01R
MIDDLEBURY*      N/A     47  37  66 CALM      29.97S
RUTLAND*       SUNNY     45  34  65 S8        30.00R
SPRINGFIELD    SUNNY     41  38  89 CALM      30.01R
HIGHGATE*        N/A     45  36  71 SE3       29.95R
NEWPORT*       PTSUNNY   39  32  76 SW5       29.99R
BENNINGTON     SUNNY     40  35  83 S3        30.01R
SUTTON*          N/A     41 N/A N/A MISG        N/A
GALLUP MILLS*    N/A     32 N/A N/A MISG        N/A
MT. MANSFIELD*   N/A     46 N/A N/A CALM        N/A

_____LAKE CHAMPLAIN_____


CITY           SKY/WX    TMP DP  RH WIND       PRES   REMARKS
BURTON ISLAND*   N/A     52  41  66 S10         N/A
COLCHESTER RF*   N/A     52  37  58 S10         N/A
DIAMOND ISL*     N/A     50  45  81 SE1         N/A

$$

NYZ007-026>031-035-052-083-031000-
_____NORTHERN NEW YORK_____


CITY           SKY/WX    TMP DP  RH WIND       PRES   REMARKS
PLATTSBURGH    MOSUNNY   47  40  76 CALM      29.94S
SARANAC LAKE   MOSUNNY   32  31  96 CALM      29.98R
MASSENA        MOSUNNY   51  37  58 SW5       29.96R
OGDENSBURG*    SUNNY     50  41  71 SW3       29.97S
POTSDAM*       CLOUDY    55  39  54 SW6       29.97S
STARK FALLS*     N/A     54 N/A N/A SW5         N/A
WATERTOWN      SUNNY     48  34  58 SW3       30.00R
FT DRUM        SUNNY     54  33  46 SW7       29.99R
ALBANY         MOSUNNY   48  38  68 CALM      30.02R
GLENS FALLS    MOSUNNY   42  36  79 CALM      30.00R

$$
NHZ002-005-011-031000-
_____NEW HAMPSHIRE_____


CITY           SKY/WX    TMP DP  RH WIND       PRES   REMARKS
LEBANON        SUNNY     38  34  85 CALM      30.00R
KEENE          SUNNY     43  37  81 SW3       30.02R
MT WASHINGTON  MOSUNNY   36  25  64 NW25        N/A
PLYMOUTH         N/A     36  36 100 CALM      30.01R FOG
WHITEFIELD     SUNNY     31  28  89 CALM      30.00R

$$

_____REGIONAL QUEBEC LOCATIONS_____


CITY           SKY/WX    TMP DP  RH WIND       PRES   REMARKS
MONTREAL       MOSUNNY   52  39  62 SW6       29.93R
QUEBEC CITY    MOSUNNY   41  39  93 NE8       29.98S
SHERBROOKE     CLOUDY    39  34  81 E6        29.96S

_____REGIONAL ONTARIO LOCATIONS_____


CITY           SKY/WX    TMP DP  RH WIND       PRES   REMARKS
OTTAWA         MOSUNNY   52  37  58 W6        29.94R

______KEY______
VSB  - VISIBILITY IN MILES
WCI  - WIND CHILL INDEX
HX   - HEAT INDEX
$$
NNNN


USA.gov is the U.S. government's official web portal to all federal, state and local government web resources and services.